Wind_Speed
29 29 30 30 29 28 30 34 30 27 26 26 25 24 25 25 25 26 26 28 29 28 26 23 21 21 22 23 25 23 21 22 23 24 23 22 21 21 22 22 22 21 21 20 20 19 20 20 21 22 22 23 24 23 24 24 22 21 20 20 19 19 19 18 18 19 19 18 17 17 16 16 16 16 16 16 16 16 17 18 19 20 20 21 22
30 29 31 32 31 34 36 34 30 28 28 26 25 26 27 26 26 25 26 30 31 28 24 21 20 20 21 22 23 23 21 20 21 23 23 22 21 20 21 22 22 21 20 19 19 19 19 19 19 21 22 22 23 23 24 25 23 22 21 20 19 18 18 17 16 17 18 18 18 18 17 17 17 17 17 17 17 18 18 19 20 21 22 23 24
35 34 35 36 37 38 35 30 28 27 27 28 27 28 27 26 26 26 26 31 31 26 21 19 19 20 20 21 21 23 22 20 19 22 23 22 21 20 20 22 23 22 20 19 18 18 18 18 18 19 21 22 22 22 24 25 24 23 23 21 19 18 16 15 15 16 17 19 19 19 19 19 19 18 18 18 18 18 19 20 22 23 24 25 25
37 37 37 39 39 33 28 27 28 26 25 27 28 29 28 26 26 25 27 30 28 21 18 18 20 19 19 20 20 21 23 21 19 21 22 22 21 20 20 22 23 23 22 19 17 17 18 18 17 18 20 21 21 22 23 24 24 24 24 22 20 17 16 15 15 16 18 19 20 19 20 20 20 20 20 19 19 19 20 20 21 23 24 24 25
38 37 36 37 35 28 25 26 28 30 29 27 27 29 28 27 26 26 28 27 21 17 16 17 19 20 19 20 19 18 22 23 20 20 21 22 21 20 19 21 23 23 23 20 17 16 17 18 18 18 19 20 20 21 22 23 23 24 25 23 20 18 17 17 16 17 19 20 20 20 21 22 22 22 22 22 22 21 21 21 21 22 22 23 23
37 37 36 37 35 31 27 25 27 32 34 31 28 29 28 27 27 27 26 22 18 17 17 17 20 20 19 20 19 17 18 22 22 20 21 22 22 20 19 20 22 23 23 22 19 16 17 17 18 18 19 19 19 20 21 22 23 23 24 24 22 20 18 18 18 18 19 20 20 21 22 23 23 24 23 24 24 25 25 23 21 21 21 22 22
37 38 39 40 40 36 32 30 30 31 34 35 31 30 30 28 27 26 23 21 20 20 20 20 22 23 21 21 21 18 15 18 22 21 20 21 22 21 19 19 21 23 24 23 20 18 17 17 17 18 19 19 19 20 21 22 22 22 23 23 23 22 20 19 19 19 19 19 20 21 22 23 24 24 24 24 25 26 28 27 23 20 20 20 21
40 40 42 42 42 40 38 39 38 35 35 37 36 32 31 30 28 26 25 26 24 22 22 24 25 26 25 24 24 23 18 16 20 22 20 19 20 19 18 19 20 22 24 23 22 20 18 17 17 18 19 19 20 20 21 21 22 22 22 22 23 23 22 21 20 19 19 19 20 21 22 23 24 24 25 25 26 26 28 29 26 21 19 19 19
44 43 43 43 43 44 45 46 44 41 39 39 39 36 33 32 30 29 28 28 27 24 24 25 26 28 28 27 26 25 22 18 17 19 20 19 19 18 16 17 20 22 24 24 23 22 21 19 17 18 19 20 20 21 21 21 21 22 22 21 22 22 23 22 20 19 20 20 21 22 22 23 24 25 25 26 26 26 27 29 28 23 19 18 18
45 44 43 44 47 49 51 50 48 46 44 41 40 37 35 36 34 32 31 29 28 27 25 24 26 28 30 29 28 26 23 19 16 16 19 19 19 18 14 15 18 20 24 25 24 23 22 21 19 19 19 19 20 21 21 21 21 22 22 21 21 22 22 23 22 21 21 22 22 23 23 24 25 25 26 26 27 27 27 28 29 27 21 18 18
46 47 48 50 52 53 54 53 51 51 48 45 42 38 37 38 38 36 33 30 29 29 27 24 26 30 29 29 28 26 23 21 19 17 17 18 19 20 15 13 17 19 21 24 25 24 23 22 21 20 20 19 20 21 22 21 22 22 22 22 21 21 21 22 22 22 22 23 23 23 24 24 25 26 26 26 27 27 27 27 28 28 24 20 18
55 56 57 58 58 58 58 58 57 55 52 49 45 41 40 40 41 40 36 32 29 30 28 25 27 28 24 25 25 24 24 23 21 18 17 18 19 21 18 14 16 18 19 22 24 25 25 24 23 22 21 21 20 20 21 22 22 23 23 22 22 21 21 21 22 22 22 23 24 24 24 25 25 26 26 26 27 28 28 27 27 27 27 23 20
63 64 63 63 62 62 63 62 61 59 56 51 46 43 43 43 43 43 40 35 30 31 29 26 29 28 24 25 25 24 25 24 22 20 18 19 20 22 21 16 17 18 19 20 22 25 25 25 24 24 23 22 21 21 21 21 22 23 23 23 23 22 22 21 21 21 22 23 24 25 25 26 26 26 26 26 27 27 28 28 27 26 26 25 23
66 66 66 65 65 64 64 64 64 62 59 54 49 44 42 42 43 45 42 38 33 33 31 29 31 30 28 28 28 26 26 24 24 24 21 21 21 22 22 18 16 17 18 18 19 22 24 25 25 25 25 24 23 23 22 22 22 22 23 24 24 24 24 23 22 22 22 23 24 25 25 26 26 26 26 26 26 26 27 27 27 26 25 25 24
66 67 66 66 66 65 64 64 64 63 61 57 51 45 42 41 42 45 43 39 36 35 34 32 32 32 31 31 31 30 28 25 26 26 24 23 23 23 22 19 17 17 18 17 17 20 23 24 25 25 25 26 25 24 23 23 23 23 24 24 24 25 25 25 24 23 23 23 24 25 26 26 27 27 26 26 26 26 26 26 26 26 25 24 24
66 66 66 66 66 65 63 61 61 60 59 57 52 45 42 40 41 44 43 40 38 37 36 34 33 32 31 31 32 32 30 27 27 27 26 26 26 26 24 20 17 16 18 18 17 19 21 23 25 25 25 26 26 26 25 24 24 24 24 24 24 25 25 25 25 25 25 25 25 26 26 27 27 27 26 26 26 26 26 25 25 26 25 25 24
64 63 62 62 62 61 59 57 57 56 55 54 51 45 41 40 40 42 43 41 40 39 38 36 35 33 32 32 33 34 33 30 28 28 28 29 29 27 25 22 19 17 18 19 18 18 20 22 24 24 24 25 26 26 26 26 26 26 25 25 26 26 26 25 26 26 26 26 26 26 26 27 27 27 27 26 26 26 26 25 25 25 25 25 25
59 58 57 57 56 56 54 52 52 53 52 51 50 46 41 38 38 41 42 42 42 42 41 38 37 36 35 35 34 34 35 32 30 30 30 30 30 28 27 24 21 19 19 20 20 19 20 22 23 23 24 25 25 26 26 27 27 26 26 26 27 26 26 26 26 26 27 27 27 26 26 26 27 27 26 26 26 27 27 26 25 25 25 25 25
56 55 54 54 53 52 51 49 49 50 49 49 49 47 44 39 38 41 41 40 42 44 43 41 40 38 37 36 34 34 35 33 31 32 32 32 31 30 28 27 25 22 20 21 21 20 21 22 22 23 23 24 25 27 27 27 27 26 27 27 27 27 27 27 27 27 27 27 26 27 27 27 26 26 26 26 26 27 28 28 26 25 25 25 25
53 53 53 53 51 50 49 47 48 49 48 47 48 48 46 42 39 41 42 39 40 43 44 43 41 39 38 37 34 34 35 34 32 32 32 32 33 32 31 30 27 24 22 23 22 21 21 22 23 23 23 23 24 27 28 29 28 27 26 27 28 28 28 28 27 27 27 26 27 28 29 28 26 26 26 26 26 27 28 29 28 26 25 25 25
52 52 52 51 50 49 49 47 46 48 48 46 48 49 47 44 41 42 44 42 40 42 44 44 43 40 39 37 35 34 34 34 33 33 33 35 36 36 35 32 29 27 25 24 24 23 22 23 24 24 24 23 23 25 27 29 30 28 27 27 28 28 28 28 28 28 28 28 29 29 28 28 27 26 26 26 26 27 29 30 29 27 26 25 25
52 51 51 51 50 49 48 47 44 45 47 46 47 49 48 47 44 42 44 45 42 41 44 45 45 43 40 38 36 34 34 35 35 36 37 40 40 40 38 34 31 29 28 26 26 25 24 25 25 26 25 23 22 24 25 27 29 29 29 29 29 29 30 29 29 29 30 30 29 28 27 27 27 26 26 26 26 28 30 31 30 28 26 26 26
52 51 51 50 50 50 48 47 46 46 47 46 46 48 48 48 47 43 44 47 45 42 44 45 47 46 44 40 37 37 37 37 38 39 40 42 43 42 39 37 34 32 30 29 29 28 27 27 27 27 26 24 23 24 24 26 27 29 30 30 30 31 31 31 31 30 31 31 29 27 26 26 27 26 26 26 28 29 31 32 31 29 27 26 27
52 51 51 50 50 51 49 47 47 48 46 45 46 47 47 47 49 47 45 46 47 45 44 45 46 47 48 45 41 40 40 40 40 39 39 41 43 42 40 38 36 34 33 33 32 31 29 29 28 28 27 25 24 25 25 25 26 28 29 30 31 31 32 32 32 31 32 32 31 29 28 27 26 26 26 28 29 31 32 33 32 30 28 27 27
52 52 51 49 48 50 50 48 49 49 46 45 45 46 45 46 48 50 47 46 45 45 44 44 45 45 46 47 45 43 42 42 41 40 40 41 43 42 40 38 37 36 36 36 36 34 32 32 31 29 28 26 25 26 27 26 27 28 30 31 31 32 33 33 33 32 33 34 33 31 29 28 27 27 28 29 31 32 33 33 33 31 28 27 28
52 52 51 49 47 48 50 50 50 50 48 44 43 45 46 46 46 47 48 47 44 42 42 43 44 44 43 44 46 46 45 44 41 39 40 42 43 43 41 39 38 39 39 38 39 38 36 34 33 32 30 28 27 28 30 29 28 29 30 32 32 33 34 34 34 34 34 34 34 33 32 31 31 31 31 31 31 32 33 34 33 31 28 27 28
53 52 51 49 47 47 49 51 50 50 49 44 40 43 49 49 47 46 47 46 42 39 40 41 42 44 44 43 44 46 47 46 43 40 39 41 43 44 43 41 39 40 40 40 41 42 40 35 34 34 33 31 29 29 32 32 31 31 31 32 33 34 35 35 36 36 36 36 35 34 34 33 33 33 33 33 32 33 34 35 34 32 29 28 29
53 52 50 49 48 47 48 50 51 50 50 46 40 42 50 51 48 48 48 45 42 40 39 39 39 40 43 46 46 47 47 46 45 42 40 41 43 45 45 43 41 41 41 42 43 43 40 37 36 36 35 35 33 31 34 35 35 33 32 33 34 35 36 37 37 38 39 38 37 36 35 35 35 34 34 33 33 34 35 35 34 33 31 30 30
53 52 50 49 48 47 47 49 51 51 50 50 45 44 50 52 48 48 50 48 46 45 43 41 41 39 40 45 49 51 50 47 46 45 43 43 44 45 46 45 44 43 42 43 43 41 39 38 37 37 37 38 36 34 35 37 37 36 35 34 36 36 38 38 38 39 40 39 39 37 36 36 36 35 34 33 34 35 36 34 33 33 33 33 33
53 52 51 49 48 47 47 47 50 52 51 52 51 48 50 54 52 49 52 51 49 49 48 46 45 43 40 41 43 47 50 49 48 48 47 46 46 45 45 45 44 44 43 44 43 40 39 38 38 38 37 38 37 35 35 38 39 39 36 36 37 37 39 40 40 40 40 40 39 38 37 37 37 35 35 35 36 37 37 35 33 34 34 34 35
53 53 51 50 48 47 46 46 47 50 51 52 54 53 52 54 55 53 53 54 52 51 51 50 50 47 43 41 40 41 44 45 46 47 48 49 48 47 46 45 44 44 43 44 44 42 40 39 40 39 37 38 38 36 36 39 41 40 37 36 37 38 40 41 41 40 40 40 39 38 38 38 37 36 36 37 38 38 38 36 36 35 35 35 37
52 52 52 50 49 47 46 46 45 46 49 51 53 56 55 54 56 57 56 55 55 54 53 54 54 52 47 44 44 43 41 41 43 45 47 49 50 49 48 48 47 46 44 44 44 43 42 41 40 38 37 39 40 38 38 39 40 39 37 37 38 39 41 42 42 41 40 40 39 39 40 38 37 38 39 40 41 40 39 38 38 37 38 38 39
51 51 51 50 49 47 45 45 44 43 45 50 52 54 57 56 56 58 57 56 57 56 57 58 58 57 54 51 51 50 45 42 44 46 47 49 51 50 49 50 50 48 46 44 43 43 43 42 41 39 38 40 43 42 39 36 36 37 37 36 37 39 41 43 42 41 40 40 40 41 40 38 38 41 43 43 44 43 42 40 40 40 42 43 43
50 50 51 50 49 47 45 44 44 42 42 46 50 52 56 58 58 58 56 56 57 56 56 58 58 59 60 59 58 56 51 47 45 47 49 51 51 50 50 51 51 48 44 42 43 43 43 43 43 42 40 41 44 44 41 37 36 38 38 37 37 39 42 43 43 42 42 42 43 42 40 39 42 44 44 45 46 46 44 44 44 45 46 46 46
49 49 50 50 48 47 45 44 42 42 40 42 47 52 55 57 59 60 57 56 58 57 55 55 54 54 57 60 61 61 59 54 49 47 48 50 51 51 51 51 51 48 42 41 43 43 43 44 44 43 42 43 46 46 43 40 40 42 42 40 39 40 42 43 44 44 43 44 45 44 41 42 44 44 45 47 48 47 46 46 47 47 48 49 49
49 48 48 49 48 46 45 44 41 40 40 40 44 50 55 56 57 59 59 58 59 58 56 55 55 53 53 55 58 61 63 62 59 55 51 51 51 51 51 52 52 51 47 44 44 45 44 44 45 46 46 47 48 47 46 44 44 45 45 43 41 42 42 43 45 45 44 45 46 46 45 44 45 46 48 50 50 49 48 48 48 49 50 51 52
49 49 48 47 47 46 45 44 41 39 39 40 41 46 52 56 56 56 57 59 59 58 56 56 57 57 56 55 55 58 61 64 65 64 60 56 54 52 51 51 52 52 51 49 48 48 48 47 49 50 51 51 51 49 48 48 47 48 47 46 45 44 44 44 45 45 45 45 47 49 49 47 47 49 51 51 51 50 50 50 49 50 51 52 52
50 49 48 47 46 46 44 43 42 40 39 39 40 43 47 53 56 56 57 58 58 57 56 55 56 57 57 57 56 56 59 62 64 65 64 61 58 54 53 51 51 51 52 52 51 52 52 52 54 55 54 54 54 53 53 51 51 52 50 49 49 47 45 44 44 45 45 45 48 51 51 49 50 51 53 53 52 52 51 51 50 51 52 53 53
51 50 49 47 45 45 44 43 42 40 40 40 39 40 43 48 53 56 57 58 58 58 57 56 56 56 56 56 55 55 57 60 62 62 63 62 59 56 55 54 52 52 52 51 51 53 54 56 57 58 57 56 54 55 55 54 54 55 52 50 50 48 46 45 44 45 45 46 49 52 52 52 52 53 54 54 54 53 53 52 52 52 54 54 54
52 51 50 48 46 44 43 43 42 40 40 41 40 38 40 45 51 55 55 56 57 58 58 56 54 55 54 53 52 54 57 59 60 60 61 61 59 57 55 54 54 54 54 52 51 51 54 55 57 58 58 56 54 54 54 55 56 56 54 53 52 49 48 47 46 46 47 47 50 53 54 54 54 54 55 56 55 55 54 54 54 55 56 56 56
53 53 51 50 48 45 44 43 42 41 39 41 42 39 38 42 50 55 54 53 56 59 60 56 54 55 55 52 51 52 55 58 60 61 61 60 58 57 56 54 54 55 55 53 51 51 51 52 54 55 55 53 52 51 51 54 56 57 57 55 53 52 51 51 50 49 49 49 50 53 55 56 56 56 57 57 57 57 57 56 57 57 58 58 58
54 54 53 52 50 47 45 43 42 42 40 40 41 41 39 40 46 54 56 54 55 60 62 59 56 56 56 54 53 54 55 56 57 59 60 60 58 58 57 56 55 55 55 54 53 52 51 51 52 52 53 52 51 51 51 52 55 58 58 57 57 55 53 53 52 51 51 51 52 54 56 57 58 59 59 59 59 59 59 59 59 59 59 60 60
55 55 54 54 52 49 47 45 43 42 42 40 40 41 41 40 43 50 56 57 55 58 62 61 59 58 57 55 55 55 57 56 55 55 56 57 58 58 58 57 57 58 56 55 54 53 53 52 52 53 55 54 53 53 53 52 54 57 59 60 60 57 54 53 53 53 53 54 55 55 56 58 60 61 61 61 62 61 61 61 62 61 61 61 60
56 56 56 55 54 52 50 48 46 44 43 42 41 41 42 42 42 47 54 59 59 58 60 61 62 61 58 57 56 56 57 57 56 56 55 54 55 57 58 58 58 58 58 57 56 55 54 54 53 54 55 56 55 54 53 53 55 57 60 62 61 57 54 54 55 56 56 57 58 58 58 60 62 63 63 64 63 62 62 63 64 63 62 61 60
58 58 57 57 56 55 53 50 48 46 44 44 43 41 42 43 44 46 51 57 62 63 61 61 63 64 61 58 57 58 59 58 57 56 55 53 52 54 56 58 58 58 58 59 58 58 57 57 57 58 57 57 57 55 55 56 57 58 59 61 61 57 54 55 58 60 60 61 63 62 61 63 64 65 65 65 64 63 64 66 66 65 63 62 61
61 60 59 59 58 57 56 54 52 49 47 45 45 44 43 43 45 47 50 54 60 66 67 65 65 66 65 61 59 58 60 60 59 58 56 54 52 52 53 55 57 58 59 59 60 59 58 59 60 60 59 58 57 56 56 56 57 59 60 60 59 57 55 57 60 62 63 66 67 66 64 64 65 66 67 67 66 65 67 69 69 67 65 63 61
63 62 61 61 60 59 58 56 55 53 51 48 47 45 45 45 45 47 50 53 57 64 69 71 69 68 68 66 64 61 60 60 61 60 58 55 53 53 54 54 55 56 58 59 59 58 56 57 59 58 57 57 56 54 55 57 58 59 59 59 58 56 56 58 61 63 65 68 69 68 67 67 66 67 68 68 68 68 70 72 71 69 66 63 63
64 64 63 63 62 61 60 59 57 56 54 52 50 48 46 46 47 48 50 52 56 60 67 72 74 72 70 69 69 67 63 63 63 60 59 58 56 55 57 57 56 56 57 59 59 57 56 57 58 57 57 58 57 54 56 58 59 58 58 59 59 57 58 60 61 63 65 68 70 70 70 70 69 68 69 71 72 72 73 74 73 70 66 65 65
66 66 66 65 65 64 63 61 60 59 57 55 53 50 49 48 49 49 50 52 55 58 63 68 74 76 75 71 70 70 67 67 66 63 61 62 61 59 59 60 59 59 59 59 60 59 59 60 61 60 59 59 58 57 58 60 59 58 60 62 62 62 63 64 63 64 66 69 71 72 71 70 70 69 71 73 75 76 76 76 74 70 67 67 69
69 69 68 68 67 66 65 64 62 61 60 58 56 54 51 50 50 50 51 52 54 57 61 65 70 75 78 75 71 70 69 68 68 66 64 65 66 65 65 64 63 63 63 62 63 63 64 64 64 64 62 60 58 59 61 62 61 62 64 66 67 68 68 67 66 67 68 70 71 72 71 70 70 71 73 75 77 78 78 76 74 70 69 69 71
71 71 71 70 70 69 67 66 65 63 62 61 59 57 55 53 52 52 52 52 54 56 60 63 66 71 76 78 76 72 70 69 67 65 65 67 68 68 67 66 64 64 65 64 63 65 66 67 67 66 64 61 59 60 62 64 65 65 68 70 72 72 71 70 69 69 69 70 71 70 70 71 71 72 73 75 76 78 78 77 74 72 71 72 73
Wind_Direction
285 285 290 290 285 286 300 307 300 286 283 283 282 287 294 297 299 299 298 299 302 302 302 304 300 298 304 310 314 319 331 338 330 326 333 337 337 336 334 334 334 333 338 343 345 346 348 349 351 355 359 3 6 10 11 7 359 351 343 335 330 327 327 330 335 339 340 340 340 341 340 337 333 327 322 317 314 311 308 305 302 301 300 299 301
284 285 286 285 284 288 298 304 298 286 278 277 278 281 285 289 295 300 300 301 304 303 300 298 295 293 299 306 311 317 326 337 332 325 330 335 336 335 332 333 334 333 334 339 341 341 344 346 349 354 356 358 3 7 10 10 7 2 356 348 339 333 334 341 348 353 354 354 353 353 352 349 345 339 332 325 318 312 307 302 299 297 296 296 298
280 279 279 280 285 289 297 303 298 290 278 274 277 280 284 286 290 294 297 300 303 301 296 292 290 290 295 301 307 313 319 330 333 327 328 332 334 334 332 332 333 332 331 333 336 336 337 341 345 350 354 355 358 2 6 10 12 10 6 2 353 346 348 353 356 359 1 1 359 358 357 356 353 349 342 334 325 316 309 303 299 297 296 296 297
283 280 279 280 283 289 302 306 299 295 287 281 279 281 284 285 286 290 292 297 299 296 290 287 287 288 291 295 300 308 313 320 329 330 328 330 333 333 330 329 330 330 328 327 330 332 332 335 339 344 350 353 355 357 1 7 11 12 10 10 7 2 0 359 358 359 0 1 1 1 2 1 360 357 352 346 338 330 321 313 307 303 301 300 300
285 284 282 280 282 289 302 307 303 301 297 292 285 280 281 281 283 289 290 292 293 288 286 286 286 287 288 289 291 300 308 312 320 328 328 329 332 331 329 328 328 329 328 325 324 326 328 330 334 339 345 349 351 353 356 1 6 10 12 12 12 10 6 4 3 3 3 4 5 5 5 4 3 2 360 357 353 346 337 327 317 310 307 304 303
282 282 278 276 280 288 294 300 307 306 301 298 289 278 276 278 279 283 284 285 287 285 286 286 285 287 287 283 281 288 301 308 312 321 326 327 329 330 329 329 329 331 331 326 320 318 323 327 330 336 341 345 347 349 351 355 360 5 9 11 13 12 9 6 5 4 3 2 2 1 360 358 357 357 358 359 359 357 352 343 330 319 312 308 305
278 278 277 275 276 280 283 288 299 306 305 304 298 281 273 277 277 274 275 280 284 284 284 284 284 284 285 280 275 275 287 302 305 312 321 325 326 327 328 329 330 332 333 329 320 313 315 321 325 331 338 341 344 345 347 350 354 359 3 6 9 11 10 8 5 3 0 358 358 358 357 357 356 356 356 357 357 358 358 354 344 330 320 314 310
272 273 275 276 274 274 277 282 288 296 300 302 302 288 272 272 273 265 267 277 282 286 284 280 281 282 281 278 274 272 276 289 296 303 313 320 323 325 327 329 330 333 336 332 325 316 311 314 319 325 333 337 341 343 344 347 350 353 356 360 3 6 7 7 7 5 3 1 1 0 360 359 360 359 358 357 357 357 358 359 354 343 332 327 322
271 270 270 271 273 275 277 280 283 288 294 298 300 294 276 267 267 260 261 270 277 284 283 279 282 282 279 275 270 271 274 280 286 292 303 311 317 321 328 332 332 335 339 337 331 324 316 312 312 318 325 332 337 340 342 344 347 349 351 354 357 360 1 2 3 3 2 2 1 0 360 360 359 359 359 358 358 357 357 359 360 354 344 340 337
268 267 265 268 273 276 278 280 282 284 290 294 297 295 281 266 262 261 259 263 270 275 278 279 283 283 278 271 266 268 273 285 296 295 295 302 309 314 326 337 337 337 341 341 337 331 324 317 312 312 316 323 330 335 339 340 342 345 347 349 352 354 355 356 357 356 357 357 358 358 357 357 357 357 357 358 358 357 357 358 1 360 353 347 346
265 266 267 271 274 276 277 280 282 284 287 291 293 291 285 271 262 262 261 260 264 269 274 276 280 283 274 264 264 267 275 293 309 307 295 295 301 306 313 331 338 336 338 342 341 336 331 326 319 314 313 315 321 328 332 335 337 339 342 344 346 349 349 350 351 351 352 352 354 355 356 356 356 356 355 355 356 357 357 356 358 1 359 352 347
271 272 272 273 274 275 277 279 281 283 285 288 289 285 283 278 266 261 260 258 260 264 270 273 277 280 268 255 258 266 278 292 303 305 296 289 292 300 302 315 332 332 331 337 342 340 335 332 327 322 318 315 316 320 325 329 331 334 337 338 340 342 344 344 345 346 347 348 349 351 352 353 355 355 354 353 353 354 355 355 356 358 0 357 350
276 275 275 275 275 275 277 278 280 282 283 284 286 280 279 280 269 260 258 254 254 257 262 266 270 273 261 251 254 264 278 287 292 294 291 284 284 292 296 305 324 329 326 329 338 342 338 334 332 329 326 322 318 316 318 321 324 328 331 333 334 335 336 337 339 341 341 342 343 345 346 347 349 351 352 351 350 351 353 354 354 354 357 358 355
278 278 277 277 277 277 277 279 279 280 280 280 281 277 275 278 268 259 256 252 250 252 254 256 263 267 261 254 254 262 274 278 281 285 286 281 279 284 289 297 313 321 319 321 332 339 338 336 333 332 332 329 325 320 317 317 318 321 325 327 328 329 330 331 333 334 335 336 336 338 339 340 342 343 346 348 348 348 350 351 352 351 351 353 355
281 281 280 279 279 279 278 279 278 277 277 276 276 271 270 274 266 257 255 250 248 250 250 251 255 262 263 259 256 260 270 273 273 278 282 280 274 277 282 289 301 310 312 311 319 331 336 336 333 332 334 333 331 327 322 318 316 317 320 322 323 324 326 328 328 328 328 329 330 332 333 334 335 336 338 342 345 346 346 348 349 349 348 347 348
284 284 283 282 280 279 277 277 277 275 274 273 272 266 264 269 264 256 254 249 246 248 249 249 250 257 263 262 259 261 269 274 273 273 278 278 273 272 275 280 290 301 307 304 305 318 329 334 332 329 332 334 334 332 328 324 319 318 318 317 318 320 323 324 325 325 325 325 327 328 328 329 330 331 332 335 339 342 342 343 345 345 346 345 343
285 284 283 283 281 280 277 275 275 274 271 268 266 261 260 264 259 253 254 251 246 244 247 249 248 251 258 262 263 263 267 273 274 272 276 278 273 269 269 273 280 290 301 299 296 305 318 328 329 327 328 331 333 334 332 330 326 323 320 316 315 317 318 320 322 324 324 325 325 325 326 326 327 328 328 329 333 337 339 339 340 341 342 342 341
285 284 284 283 283 282 279 276 273 272 268 265 262 257 256 259 253 249 253 253 248 244 246 249 248 247 252 259 262 261 263 269 271 271 275 277 272 267 266 267 273 283 295 295 292 296 306 318 325 325 325 325 327 330 331 331 330 328 325 322 318 316 316 317 320 322 323 323 324 324 324 324 325 326 327 327 328 332 335 335 335 336 338 339 338
287 287 286 286 284 283 281 277 272 270 267 262 259 255 253 255 250 245 248 252 250 246 246 248 248 247 251 257 259 257 258 263 267 270 275 275 268 265 265 265 269 277 289 291 289 291 297 306 316 321 322 322 322 324 327 329 329 329 328 327 324 320 317 317 318 319 321 322 323 324 324 322 322 323 324 325 326 328 331 333 332 332 333 335 335
289 288 288 288 286 284 282 278 272 269 266 260 256 253 252 252 250 244 243 248 250 247 248 249 247 246 250 254 256 254 253 258 265 268 272 272 267 263 264 266 269 273 281 286 284 286 291 296 304 312 315 319 321 322 325 328 328 328 327 328 327 325 320 318 318 319 320 321 321 323 324 321 319 320 322 323 324 326 329 330 329 328 329 331 332
288 288 288 288 285 282 280 277 273 269 265 259 253 251 251 251 252 247 243 245 249 248 248 248 246 245 247 251 253 252 252 257 263 264 266 269 268 264 262 264 267 268 274 280 279 281 285 288 294 302 307 313 318 321 324 325 326 326 326 325 327 327 325 321 320 320 319 318 320 322 323 320 318 318 319 321 322 324 327 328 327 324 325 328 329
288 287 288 287 285 282 277 275 272 269 265 259 252 249 250 251 253 252 246 243 246 248 248 247 246 244 244 248 250 250 251 253 256 258 261 266 267 264 261 262 265 265 268 274 275 277 280 282 287 296 301 307 314 318 321 323 323 323 324 325 325 327 328 326 323 321 319 318 320 323 322 319 318 318 318 320 322 323 325 325 324 322 321 324 327
287 287 288 287 284 282 277 273 270 268 266 261 253 248 248 250 253 253 250 245 243 245 247 247 246 244 242 244 247 247 247 249 252 257 260 262 264 262 260 262 265 263 265 269 270 273 276 277 282 292 297 302 309 313 317 320 321 320 322 325 326 327 328 328 326 325 324 323 323 324 322 319 318 318 318 320 322 324 325 324 322 320 318 320 324
287 287 287 285 283 281 279 274 268 266 265 262 256 249 247 250 252 252 250 247 244 244 245 245 246 246 244 243 245 248 249 251 256 261 262 260 260 260 260 262 264 264 264 266 268 272 274 274 279 288 294 297 303 308 313 317 318 319 320 322 326 328 328 328 328 328 328 327 325 324 322 320 318 317 317 320 323 325 325 323 321 318 315 318 321
287 287 287 284 281 280 278 275 268 265 263 261 257 251 247 248 250 250 249 247 247 246 245 244 244 245 247 245 246 249 251 253 257 263 263 260 258 258 260 262 263 264 264 265 268 271 272 273 277 284 290 294 298 302 306 311 315 317 320 320 321 324 327 328 328 328 328 328 327 325 323 319 316 315 316 319 324 326 325 322 319 315 313 316 319
287 287 287 284 281 278 276 274 269 265 262 260 258 253 246 245 246 247 247 246 246 246 245 246 244 243 245 247 248 250 251 252 257 263 264 261 258 258 260 262 263 264 265 266 269 270 271 273 276 280 285 290 296 298 298 302 308 313 318 319 318 319 322 325 327 327 328 327 326 326 325 322 318 315 317 320 323 325 325 323 318 313 311 314 318
287 288 288 286 283 278 275 273 270 265 260 257 259 256 248 245 244 245 245 244 242 241 243 246 246 244 244 245 248 251 252 252 256 261 262 260 258 257 259 262 263 264 265 267 269 271 273 275 276 278 280 286 294 297 294 294 299 306 313 317 316 315 317 321 324 326 327 327 325 325 325 324 322 319 318 319 321 323 324 323 317 311 309 312 317
288 289 289 288 285 281 277 273 270 265 257 251 253 254 248 245 245 244 244 244 241 237 237 240 242 245 246 244 245 247 250 253 256 259 260 260 259 259 260 262 262 263 265 267 268 271 274 276 275 275 277 283 290 295 293 290 292 298 305 312 314 313 313 316 320 323 325 325 325 324 324 323 324 323 320 318 318 321 324 324 318 312 309 310 315
288 289 290 289 287 284 279 275 271 266 257 248 246 249 247 245 245 244 242 242 242 238 234 233 233 237 243 244 245 246 248 252 256 257 258 259 259 260 260 261 261 261 264 267 268 270 271 273 273 272 275 280 285 291 291 288 289 292 298 307 311 311 311 312 315 319 322 323 323 323 323 323 323 323 322 319 317 320 324 325 322 316 311 310 313
289 290 292 291 289 286 282 278 274 269 262 251 245 245 246 245 246 245 242 241 241 239 233 231 230 231 236 242 244 246 247 251 255 257 257 257 258 258 257 258 259 261 264 267 268 269 268 268 269 270 273 277 281 286 287 287 289 289 293 302 307 309 309 310 312 315 318 320 321 321 322 323 322 321 321 319 319 320 322 323 323 321 318 316 315
289 291 293 292 290 288 285 282 277 271 265 256 248 244 243 243 244 245 243 240 240 239 234 229 228 228 232 236 239 243 247 250 254 256 256 254 255 256 254 254 256 260 264 267 267 267 267 265 265 268 271 274 278 281 284 288 288 286 290 299 304 306 307 308 310 312 314 317 318 319 320 321 321 320 319 319 320 321 322 322 322 321 321 320 321
289 291 293 293 292 290 288 286 282 274 266 259 252 245 240 240 241 242 243 242 241 241 237 233 229 228 230 234 237 239 243 246 250 253 254 253 253 253 252 251 253 257 262 264 264 265 266 264 264 266 270 272 275 277 282 287 286 284 288 295 299 302 303 305 308 309 311 314 315 316 319 319 319 319 318 319 320 321 320 320 319 319 318 319 320
289 291 293 293 293 292 291 289 286 279 267 259 253 246 240 239 240 241 242 244 244 243 242 240 236 231 233 237 239 239 239 241 245 247 250 252 253 252 251 250 251 256 261 262 261 263 265 264 264 267 270 271 275 279 280 282 285 284 286 291 295 298 300 302 305 307 309 310 311 313 314 316 316 317 317 317 318 318 317 316 316 315 316 317 318
288 290 292 293 293 293 292 292 289 283 271 259 252 246 241 239 239 240 243 244 244 245 245 243 241 238 239 241 240 239 237 237 241 245 247 250 252 252 252 251 251 255 259 261 261 263 264 265 267 269 268 269 275 278 277 276 280 282 284 287 292 294 297 300 302 304 306 307 308 309 310 312 314 315 315 315 315 315 314 313 313 313 314 316 317
287 289 291 292 293 293 293 292 291 287 277 263 252 245 241 239 239 240 243 243 242 244 244 242 241 241 242 243 242 240 239 237 238 242 245 248 251 252 252 251 250 252 254 258 262 264 265 266 267 266 265 268 274 275 273 273 275 278 282 285 289 291 294 296 298 300 302 304 306 307 306 309 313 315 313 312 313 313 313 312 312 312 313 315 316
286 288 290 291 292 293 293 293 292 290 282 269 255 246 241 239 238 238 240 241 241 242 242 239 238 239 240 241 242 241 241 241 240 240 242 245 248 250 251 251 251 251 250 252 257 261 263 264 263 261 262 268 273 272 271 273 274 278 282 284 286 289 291 292 294 297 299 301 303 304 305 307 311 312 311 311 312 312 312 312 311 312 313 314 316
285 286 288 290 291 292 293 293 293 292 287 276 261 250 241 237 237 237 237 238 238 239 240 239 238 240 241 241 242 241 240 241 243 243 243 244 246 248 250 251 251 251 250 250 252 254 256 257 257 258 262 268 270 269 270 274 277 279 281 282 283 286 287 290 292 294 296 298 300 301 302 304 307 309 309 309 310 310 311 311 310 310 312 314 315
284 285 286 287 289 291 292 292 293 292 290 282 269 256 246 237 235 238 237 236 236 236 237 239 240 242 243 243 243 243 241 241 242 244 245 246 247 247 248 249 251 250 250 250 251 252 253 254 256 259 263 267 270 270 271 274 276 278 280 280 281 284 286 289 292 292 293 295 296 298 300 302 304 306 307 308 308 308 309 309 308 309 311 314 315
282 283 284 285 286 289 291 291 292 292 291 287 276 263 252 240 234 237 238 236 234 233 234 238 241 242 243 243 242 242 241 241 242 244 245 246 247 248 247 247 248 249 249 251 253 254 255 256 258 260 263 267 269 272 274 275 276 277 279 279 280 283 287 290 291 291 290 291 293 296 298 300 301 303 304 305 305 306 307 307 307 308 310 312 313
281 282 283 284 284 286 288 289 290 290 290 289 282 269 257 245 236 236 239 237 233 230 230 235 239 240 242 243 241 239 238 239 241 243 244 245 246 247 247 246 247 248 249 251 253 256 258 259 260 261 264 266 268 271 275 277 277 277 279 281 282 283 286 289 290 289 287 287 291 294 296 297 299 300 301 302 302 303 305 305 306 307 308 310 311
280 281 282 283 284 284 286 287 287 288 288 288 286 277 264 250 240 236 237 238 234 228 226 231 236 239 241 243 241 238 236 236 239 241 243 244 245 246 246 246 247 248 250 251 252 254 257 260 262 263 264 265 266 267 271 275 276 278 280 282 282 283 286 288 288 287 286 287 289 291 293 294 295 296 298 298 299 301 303 305 306 307 307 308 309
279 280 281 282 283 283 284 284 285 285 285 285 286 283 272 258 246 238 236 236 235 228 225 228 233 237 241 243 241 238 236 237 239 241 242 244 245 245 246 246 247 247 249 250 251 253 255 257 260 261 262 263 263 264 267 271 275 279 282 283 282 283 285 286 285 285 285 287 288 288 289 291 293 294 296 296 296 298 301 304 305 305 306 307 307
278 279 280 281 282 282 282 283 282 282 282 282 283 284 279 267 253 243 236 234 234 230 227 227 230 234 238 240 240 238 237 238 240 241 243 244 244 244 245 246 247 247 248 249 251 253 254 256 257 258 260 261 262 263 265 269 273 277 280 281 282 283 284 283 282 283 284 285 286 286 287 289 291 293 294 294 294 296 299 302 303 303 304 305 305
277 278 279 280 281 281 281 281 281 280 280 280 279 280 280 273 261 249 240 234 232 230 229 227 228 231 235 236 236 237 238 239 241 242 243 244 245 245 245 245 246 247 248 248 250 251 252 254 255 257 259 261 261 262 264 266 269 272 275 277 280 282 281 280 279 280 282 284 285 284 285 287 289 291 291 291 292 293 296 299 301 301 303 303 304
277 277 278 279 280 280 281 280 280 279 278 278 277 276 277 275 268 256 246 238 233 230 229 228 227 228 231 233 234 237 238 239 241 243 244 244 245 244 244 244 245 247 248 249 249 250 251 253 255 257 259 261 262 262 264 266 267 268 270 274 277 278 277 276 276 278 281 282 282 283 284 285 286 287 288 289 290 290 292 296 299 300 301 302 303
277 277 277 278 279 280 280 280 279 278 277 276 275 274 273 273 271 263 253 244 237 233 230 228 227 227 228 231 234 237 239 239 240 242 243 244 244 241 241 243 245 246 247 249 249 250 252 254 257 258 260 261 262 264 265 266 266 267 269 271 271 273 275 275 276 278 280 280 280 282 282 283 283 285 286 288 287 287 290 294 297 299 300 302 303
277 277 277 277 278 278 279 279 279 278 276 274 273 273 271 270 270 267 259 250 243 237 233 230 229 228 227 229 233 237 239 239 239 239 240 242 243 240 238 240 243 244 245 247 248 250 252 254 256 258 259 261 262 264 264 264 264 266 268 267 267 271 275 276 276 278 279 279 279 279 280 280 282 283 285 286 286 288 291 294 296 298 299 301 301
277 277 277 277 277 277 277 278 277 277 276 274 272 271 270 269 268 267 264 257 249 243 238 234 231 229 228 229 232 236 238 239 238 238 238 240 241 241 240 240 242 243 243 244 246 248 249 250 251 254 256 259 261 262 261 261 262 264 263 264 267 272 274 274 274 275 275 275 275 277 278 279 281 282 284 285 286 288 290 292 294 296 298 298 298
277 277 277 276 276 276 276 276 275 275 274 273 272 270 268 268 266 265 264 261 254 248 243 239 235 232 230 230 232 235 238 239 239 239 239 240 241 243 244 243 242 242 242 243 245 246 248 249 251 253 255 258 259 259 258 258 259 260 260 263 267 270 272 273 272 271 271 271 272 275 278 279 281 282 283 284 286 288 289 291 292 294 295 295 296
278 277 276 276 276 275 275 275 274 273 273 272 271 269 268 266 265 264 263 262 259 252 247 244 240 236 233 231 232 233 235 237 238 239 240 242 243 244 246 247 245 244 245 246 247 247 248 250 253 255 256 257 257 257 257 257 257 257 260 264 267 269 271 272 271 269 269 270 273 275 278 279 280 281 282 283 286 287 288 289 291 292 293 294 295
278 277 276 276 275 275 274 274 273 272 272 271 270 269 267 265 264 263 262 261 260 257 251 247 244 241 237 233 232 232 234 235 236 237 239 241 243 244 246 248 248 246 246 247 249 250 251 252 254 255 255 255 255 254 254 255 256 258 261 265 267 269 270 270 269 269 270 272 274 275 276 277 278 279 282 284 285 286 287 288 290 291 292 293 294
Height
10805 10806 10805 10804 10803 10802 10801 10799 10797 10796 10795 10794 10793 10791 10790 10791 10790 10790 10789 10788 10787 10786 10785 10784 10783 10781 10780 10777 10775 10775 10776 10776 10771 10768 10768 10768 10766 10765 10764 10763 10761 10760 10759 10757 10756 10754 10753 10751 10750 10749 10747 10746 10744 10743 10741 10740 10738 10736 10735 10733 10732 10730 10729 10728 10727 10727 10726 10725 10724 10723 10723 10722 10721 10721 10720 10719 10719 10718 10717 10717 10716 10715 10715 10714 10714
10802 10802 10801 10800 10799 10799 10799 10797 10794 10792 10792 10791 10790 10788 10788 10788 10789 10788 10787 10786 10784 10783 10782 10782 10781 10780 10779 10777 10774 10772 10774 10775 10772 10768 10767 10766 10766 10765 10764 10762 10761 10760 10758 10757 10755 10754 10753 10751 10750 10749 10747 10746 10744 10743 10741 10740 10738 10736 10734 10733 10731 10730 10729 10728 10727 10727 10726 10725 10724 10723 10722 10721 10720 10720 10719 10718 10718 10717 10716 10716 10715 10714 10713 10713 10712
10799 10798 10797 10796 10796 10795 10795 10793 10791 10790 10788 10788 10788 10786 10785 10786 10786 10786 10785 10784 10782 10781 10780 10780 10779 10778 10777 10776 10774 10771 10770 10773 10772 10769 10767 10765 10765 10764 10763 10762 10761 10759 10758 10757 10755 10754 10752 10751 10750 10748 10747 10746 10744 10743 10741 10740 10738 10736 10735 10733 10731 10730 10729 10728 10728 10727 10726 10725 10724 10723 10722 10721 10720 10719 10718 10717 10717 10716 10715 10714 10714 10713 10712 10711 10711
10794 10794 10793 10792 10791 10791 10790 10789 10788 10787 10786 10785 10785 10785 10784 10784 10784 10784 10783 10782 10780 10779 10778 10777 10777 10777 10776 10775 10774 10771 10768 10769 10771 10769 10767 10765 10764 10763 10762 10761 10760 10759 10758 10756 10755 10754 10752 10751 10749 10748 10747 10745 10744 10743 10742 10740 10738 10737 10735 10733 10732 10731 10730 10729 10728 10727 10726 10725 10724 10723 10722 10721 10720 10719 10718 10717 10716 10715 10714 10713 10712 10711 10710 10709 10709
10791 10790 10789 10787 10786 10786 10786 10785 10785 10784 10783 10782 10782 10782 10782 10782 10782 10781 10781 10780 10778 10776 10775 10775 10774 10774 10774 10773 10773 10772 10768 10767 10768 10768 10767 10765 10764 10763 10762 10761 10760 10758 10757 10756 10754 10753 10752 10750 10749 10748 10747 10745 10744 10743 10741 10740 10739 10737 10736 10734 10733 10732 10730 10729 10728 10727 10726 10725 10724 10723 10722 10721 10720 10719 10718 10716 10715 10714 10712 10711 10710 10709 10708 10708 10707
10787 10786 10785 10783 10782 10782 10782 10782 10782 10781 10780 10779 10779 10779 10779 10779 10780 10779 10778 10777 10776 10774 10773 10772 10772 10772 10772 10771 10771 10771 10769 10766 10765 10766 10766 10764 10763 10762 10761 10760 10759 10758 10756 10755 10754 10753 10751 10750 10749 10748 10746 10745 10744 10743 10741 10740 10739 10737 10736 10735 10733 10732 10731 10730 10728 10727 10726 10725 10724 10723 10722 10721 10719 10718 10717 10716 10714 10713 10711 10710 10708 10707 10706 10706 10705
10784 10782 10780 10779 10778 10778 10778 10778 10778 10778 10777 10776 10777 10776 10776 10776 10776 10776 10776 10775 10774 10772 10771 10770 10769 10769 10769 10769 10769 10769 10768 10766 10764 10764 10764 10764 10762 10761 10759 10759 10758 10757 10756 10754 10753 10752 10751 10750 10748 10747 10746 10745 10744 10742 10741 10740 10739 10737 10736 10735 10734 10732 10731 10730 10728 10727 10726 10725 10724 10723 10721 10720 10719 10717 10716 10715 10713 10712 10710 10709 10707 10706 10705 10704 10704
10780 10778 10776 10774 10773 10773 10774 10775 10775 10775 10774 10774 10774 10773 10772 10772 10772 10773 10772 10771 10771 10770 10769 10768 10767 10767 10766 10765 10765 10767 10767 10766 10764 10762 10762 10762 10762 10761 10759 10758 10757 10757 10756 10754 10752 10751 10750 10749 10748 10747 10746 10745 10743 10742 10741 10740 10739 10737 10736 10735 10734 10732 10731 10730 10728 10727 10726 10725 10724 10723 10721 10720 10718 10717 10715 10714 10713 10711 10710 10708 10706 10705 10703 10703 10702
10774 10773 10771 10770 10769 10768 10769 10770 10772 10772 10772 10771 10770 10769 10768 10768 10768 10768 10768 10768 10767 10767 10766 10765 10765 10764 10763 10762 10762 10764 10765 10764 10763 10762 10761 10760 10761 10761 10760 10758 10757 10756 10755 10754 10752 10750 10749 10748 10747 10746 10745 10744 10743 10742 10741 10740 10738 10737 10736 10735 10734 10732 10731 10730 10729 10727 10726 10725 10724 10722 10721 10719 10718 10716 10715 10713 10712 10711 10709 10708 10706 10704 10703 10702 10701
10769 10769 10768 10766 10765 10764 10764 10765 10767 10767 10768 10767 10767 10766 10764 10764 10764 10764 10764 10764 10764 10763 10762 10761 10762 10761 10760 10760 10759 10761 10762 10762 10762 10761 10759 10759 10759 10760 10760 10758 10757 10755 10754 10753 10751 10750 10749 10747 10746 10745 10744 10744 10743 10741 10740 10739 10738 10737 10736 10735 10733 10732 10731 10730 10729 10727 10726 10725 10723 10722 10721 10719 10718 10716 10714 10713 10711 10710 10708 10707 10705 10704 10702 10701 10700
10764 10765 10765 10764 10762 10761 10759 10759 10760 10761 10762 10762 10762 10762 10761 10760 10760 10760 10760 10760 10760 10759 10758 10758 10758 10757 10757 10757 10757 10757 10758 10759 10759 10759 10758 10758 10757 10758 10758 10757 10756 10755 10753 10752 10751 10750 10748 10747 10745 10744 10743 10743 10742 10741 10740 10739 10738 10737 10736 10734 10733 10732 10731 10729 10728 10727 10726 10725 10723 10722 10720 10719 10717 10715 10714 10712 10711 10709 10708 10706 10705 10703 10702 10701 10699
10758 10759 10759 10759 10758 10757 10755 10754 10754 10755 10755 10756 10757 10757 10757 10756 10756 10756 10755 10756 10756 10755 10754 10756 10755 10754 10754 10754 10754 10755 10755 10756 10757 10757 10757 10756 10756 10756 10756 10755 10755 10754 10753 10751 10750 10749 10748 10746 10745 10744 10742 10742 10741 10740 10739 10738 10737 10736 10735 10734 10733 10731 10730 10729 10728 10726 10725 10724 10723 10721 10720 10718 10716 10715 10713 10711 10710 10708 10707 10706 10704 10703 10701 10700 10699
10752 10752 10753 10753 10753 10751 10750 10749 10748 10748 10749 10750 10751 10751 10752 10751 10751 10751 10751 10752 10752 10750 10751 10752 10752 10751 10751 10751 10752 10752 10752 10753 10754 10755 10755 10755 10755 10754 10754 10753 10753 10752 10751 10750 10749 10748 10747 10745 10744 10743 10742 10740 10740 10739 10738 10737 10736 10735 10734 10733 10732 10731 10729 10728 10727 10726 10724 10723 10722 10720 10719 10717 10715 10714 10712 10710 10709 10707 10706 10705 10703 10702 10701 10700 10698
10744 10744 10745 10745 10745 10744 10743 10743 10742 10742 10741 10743 10744 10745 10746 10746 10746 10746 10746 10748 10748 10747 10747 10748 10748 10748 10748 10748 10749 10750 10750 10751 10751 10752 10752 10753 10753 10752 10752 10751 10751 10750 10749 10749 10748 10746 10745 10744 10743 10742 10741 10739 10738 10738 10737 10736 10735 10734 10733 10732 10731 10729 10728 10727 10726 10724 10723 10722 10721 10719 10718 10716 10715 10713 10711 10709 10708 10706 10705 10704 10703 10701 10700 10699 10698
10737 10736 10736 10737 10737 10737 10736 10736 10735 10735 10734 10736 10738 10739 10740 10741 10740 10741 10742 10743 10743 10743 10743 10744 10744 10744 10744 10745 10746 10746 10747 10748 10748 10748 10749 10750 10750 10750 10750 10749 10748 10748 10748 10747 10746 10745 10744 10742 10741 10740 10739 10738 10737 10736 10735 10735 10734 10733 10732 10731 10730 10728 10727 10726 10725 10723 10722 10721 10719 10718 10717 10715 10714 10712 10710 10709 10707 10705 10704 10703 10702 10700 10699 10698 10697
10731 10729 10728 10728 10729 10729 10729 10728 10727 10727 10727 10728 10731 10733 10734 10735 10735 10736 10737 10738 10739 10739 10739 10739 10740 10740 10741 10741 10741 10742 10744 10745 10745 10745 10746 10747 10747 10747 10747 10747 10746 10746 10745 10745 10744 10743 10742 10741 10740 10739 10738 10737 10735 10734 10733 10733 10732 10731 10730 10729 10728 10727 10726 10725 10723 10722 10720 10719 10718 10717 10715 10714 10712 10711 10709 10708 10706 10705 10703 10702 10700 10699 10698 10697 10696
10724 10723 10722 10721 10721 10720 10721 10721 10720 10720 10720 10722 10724 10727 10728 10729 10730 10731 10732 10734 10735 10735 10735 10735 10736 10737 10737 10737 10737 10738 10740 10741 10741 10742 10743 10744 10744 10744 10744 10744 10744 10744 10743 10743 10742 10741 10740 10739 10738 10737 10736 10735 10734 10733 10732 10731 10730 10729 10728 10727 10727 10726 10725 10723 10722 10721 10719 10718 10716 10715 10714 10712 10711 10710 10708 10707 10705 10704 10702 10700 10699 10698 10697 10695 10695
10718 10717 10716 10716 10715 10713 10713 10714 10713 10713 10713 10715 10718 10720 10722 10723 10725 10727 10727 10729 10730 10731 10731 10731 10732 10732 10733 10734 10734 10734 10735 10736 10737 10738 10739 10740 10741 10741 10741 10742 10741 10741 10741 10740 10740 10739 10738 10737 10736 10735 10735 10733 10732 10731 10730 10729 10728 10727 10726 10725 10725 10724 10723 10722 10720 10719 10717 10716 10715 10713 10712 10711 10709 10708 10707 10705 10704 10702 10701 10699 10698 10696 10695 10694 10693
10713 10711 10710 10709 10709 10708 10707 10706 10706 10706 10707 10709 10711 10714 10716 10718 10720 10721 10723 10724 10725 10727 10727 10728 10728 10729 10729 10730 10730 10730 10731 10732 10733 10734 10735 10736 10737 10738 10738 10738 10738 10738 10738 10738 10737 10737 10736 10735 10733 10733 10732 10732 10730 10729 10728 10727 10726 10725 10724 10723 10722 10722 10721 10720 10718 10717 10716 10714 10713 10712 10710 10709 10708 10706 10705 10704 10702 10701 10699 10698 10696 10695 10694 10692 10691
10709 10707 10705 10704 10703 10702 10700 10700 10700 10700 10700 10702 10705 10708 10711 10713 10715 10717 10718 10719 10720 10722 10723 10723 10724 10725 10725 10726 10726 10727 10727 10728 10729 10730 10731 10732 10733 10734 10734 10735 10735 10736 10735 10735 10735 10735 10734 10732 10731 10730 10730 10730 10728 10727 10725 10724 10723 10722 10722 10721 10720 10719 10718 10717 10716 10715 10714 10712 10711 10709 10708 10707 10705 10704 10703 10702 10700 10699 10698 10696 10695 10693 10692 10690 10689
10705 10703 10701 10699 10697 10696 10695 10694 10694 10694 10695 10696 10699 10702 10705 10708 10710 10712 10714 10714 10715 10716 10718 10719 10720 10721 10721 10722 10723 10723 10723 10724 10725 10726 10727 10728 10729 10730 10730 10731 10732 10732 10732 10732 10732 10731 10731 10730 10729 10728 10728 10728 10726 10725 10723 10722 10721 10720 10720 10719 10718 10717 10716 10715 10714 10713 10711 10710 10709 10707 10706 10704 10703 10702 10701 10700 10699 10697 10696 10694 10693 10692 10690 10689 10687
10701 10698 10696 10694 10692 10690 10689 10689 10689 10689 10689 10690 10694 10697 10700 10702 10704 10706 10708 10709 10710 10711 10712 10714 10715 10716 10717 10718 10719 10720 10720 10721 10721 10722 10723 10724 10725 10725 10726 10727 10728 10729 10729 10729 10728 10728 10728 10727 10726 10725 10724 10725 10724 10722 10721 10720 10719 10718 10717 10717 10716 10715 10714 10712 10711 10710 10709 10707 10706 10705 10703 10702 10701 10700 10699 10698 10697 10695 10694 10692 10691 10690 10688 10687 10686
10696 10693 10691 10689 10687 10684 10684 10684 10685 10684 10683 10685 10688 10691 10694 10697 10698 10700 10701 10703 10705 10707 10708 10709 10710 10712 10713 10714 10715 10716 10716 10716 10717 10718 10719 10719 10720 10721 10722 10722 10723 10724 10725 10725 10725 10725 10724 10724 10723 10722 10721 10722 10721 10719 10718 10718 10717 10716 10715 10714 10713 10712 10711 10710 10709 10707 10706 10705 10703 10702 10701 10700 10698 10697 10696 10695 10694 10693 10692 10690 10689 10688 10686 10685 10684
10690 10688 10686 10684 10682 10679 10679 10679 10679 10678 10678 10680 10683 10686 10689 10691 10692 10693 10695 10697 10699 10702 10703 10704 10706 10707 10708 10710 10711 10712 10712 10712 10713 10714 10714 10714 10715 10716 10717 10717 10718 10719 10721 10721 10721 10721 10721 10721 10721 10719 10718 10718 10718 10717 10715 10715 10714 10713 10713 10712 10710 10709 10708 10707 10706 10705 10703 10702 10701 10700 10698 10697 10696 10695 10694 10693 10692 10691 10690 10688 10687 10686 10684 10683 10682
10684 10682 10680 10679 10678 10675 10673 10673 10673 10673 10674 10676 10678 10681 10683 10685 10685 10687 10689 10691 10694 10696 10698 10700 10702 10703 10704 10706 10707 10707 10708 10708 10708 10708 10709 10710 10711 10712 10713 10712 10712 10714 10715 10716 10717 10718 10718 10718 10717 10716 10715 10715 10715 10714 10712 10711 10711 10710 10710 10709 10708 10707 10705 10704 10703 10702 10701 10700 10698 10697 10696 10695 10694 10693 10692 10690 10689 10688 10687 10686 10684 10683 10682 10681 10679
10679 10676 10674 10673 10672 10670 10669 10668 10668 10668 10670 10672 10675 10676 10677 10678 10680 10682 10684 10686 10689 10692 10694 10696 10698 10698 10700 10701 10702 10703 10703 10704 10703 10703 10704 10705 10706 10707 10708 10707 10707 10708 10710 10711 10712 10713 10714 10714 10714 10712 10711 10710 10712 10711 10709 10708 10708 10707 10707 10706 10705 10704 10703 10701 10700 10699 10698 10697 10696 10695 10693 10692 10691 10690 10689 10688 10686 10685 10684 10683 10682 10680 10679 10678 10677
10673 10671 10669 10667 10666 10665 10664 10663 10662 10663 10665 10670 10673 10672 10670 10672 10675 10677 10678 10680 10685 10687 10688 10691 10693 10694 10696 10697 10697 10697 10697 10698 10699 10699 10699 10700 10701 10702 10703 10702 10702 10703 10705 10706 10706 10707 10709 10710 10709 10708 10707 10706 10707 10708 10706 10705 10705 10704 10704 10703 10702 10701 10700 10699 10697 10696 10695 10694 10693 10692 10690 10689 10688 10687 10686 10684 10683 10682 10681 10680 10679 10677 10676 10675 10674
10666 10665 10664 10662 10660 10659 10658 10657 10657 10658 10660 10665 10669 10666 10661 10664 10669 10672 10674 10676 10679 10680 10681 10685 10688 10690 10691 10691 10690 10691 10692 10692 10693 10694 10695 10695 10696 10697 10697 10697 10697 10698 10699 10700 10701 10702 10703 10704 10703 10703 10702 10701 10702 10704 10703 10701 10701 10701 10700 10700 10699 10698 10697 10696 10694 10693 10692 10691 10689 10688 10687 10686 10685 10683 10682 10681 10680 10679 10678 10677 10676 10675 10674 10672 10671
10660 10659 10658 10657 10655 10653 10652 10651 10650 10651 10654 10658 10661 10658 10655 10658 10663 10666 10668 10671 10673 10673 10675 10678 10681 10683 10684 10684 10684 10685 10687 10687 10688 10688 10689 10690 10691 10692 10692 10693 10693 10694 10694 10694 10696 10698 10699 10699 10698 10698 10698 10697 10697 10700 10699 10697 10697 10697 10696 10696 10695 10694 10693 10692 10691 10690 10688 10687 10686 10685 10683 10682 10681 10680 10679 10678 10677 10676 10675 10674 10673 10672 10671 10670 10669
10654 10653 10652 10651 10649 10647 10646 10645 10644 10644 10646 10649 10651 10651 10650 10651 10655 10659 10661 10664 10666 10667 10669 10672 10673 10675 10676 10677 10678 10679 10680 10681 10681 10682 10683 10684 10685 10687 10688 10688 10689 10689 10689 10689 10690 10692 10694 10694 10694 10693 10693 10692 10692 10695 10695 10693 10693 10693 10693 10692 10691 10690 10689 10688 10687 10686 10685 10684 10682 10681 10680 10678 10677 10676 10675 10674 10674 10673 10672 10671 10670 10669 10668 10667 10666
10648 10647 10646 10645 10643 10642 10640 10639 10638 10637 10638 10640 10641 10643 10643 10643 10646 10649 10653 10657 10659 10661 10664 10667 10668 10669 10671 10673 10674 10673 10674 10675 10675 10676 10677 10677 10679 10681 10683 10684 10684 10685 10685 10684 10684 10686 10688 10689 10689 10689 10688 10687 10686 10690 10691 10690 10689 10689 10689 10688 10687 10686 10685 10685 10684 10683 10681 10680 10679 10677 10676 10675 10673 10672 10671 10671 10670 10669 10668 10667 10666 10665 10664 10663 10662
10643 10642 10640 10639 10637 10636 10634 10632 10631 10630 10630 10631 10632 10634 10636 10637 10638 10641 10645 10649 10652 10654 10658 10661 10662 10665 10667 10668 10669 10667 10668 10670 10670 10670 10670 10671 10673 10675 10678 10679 10680 10681 10681 10680 10679 10679 10682 10683 10683 10684 10683 10681 10680 10684 10687 10686 10684 10684 10685 10685 10683 10682 10682 10681 10680 10679 10678 10676 10675 10674 10672 10671 10670 10669 10668 10667 10665 10664 10664 10663 10662 10661 10660 10659 10658
10638 10636 10635 10634 10632 10630 10629 10626 10624 10623 10623 10624 10625 10627 10630 10632 10633 10636 10639 10643 10645 10648 10650 10653 10655 10658 10660 10662 10662 10661 10661 10663 10663 10664 10664 10665 10667 10669 10672 10673 10675 10676 10676 10675 10674 10674 10676 10677 10678 10678 10678 10675 10674 10677 10681 10682 10680 10680 10680 10681 10679 10678 10677 10677 10676 10675 10674 10673 10671 10670 10669 10667 10666 10665 10664 10662 10661 10660 10659 10658 10658 10657 10656 10655 10654
10634 10632 10629 10628 10626 10625 10623 10621 10618 10617 10616 10617 10618 10620 10623 10626 10629 10631 10634 10636 10638 10640 10642 10644 10648 10651 10651 10652 10652 10652 10653 10655 10656 10657 10658 10659 10661 10663 10666 10668 10670 10671 10671 10669 10668 10669 10670 10671 10672 10673 10673 10671 10669 10670 10673 10676 10676 10675 10675 10676 10675 10673 10673 10673 10672 10671 10670 10669 10667 10666 10665 10664 10662 10661 10660 10658 10657 10656 10655 10654 10653 10652 10651 10650 10649
10629 10627 10625 10622 10621 10619 10617 10615 10613 10611 10610 10610 10611 10613 10615 10619 10622 10625 10627 10629 10630 10632 10634 10637 10640 10642 10642 10642 10643 10645 10647 10648 10649 10651 10652 10653 10655 10657 10659 10662 10664 10667 10667 10664 10663 10664 10665 10666 10667 10668 10667 10666 10665 10665 10666 10670 10672 10670 10670 10671 10670 10668 10668 10668 10667 10666 10665 10664 10663 10662 10660 10659 10658 10657 10656 10654 10653 10652 10651 10650 10649 10648 10647 10645 10644
10623 10622 10620 10617 10615 10613 10611 10610 10608 10606 10604 10604 10604 10606 10608 10611 10614 10618 10620 10622 10623 10625 10627 10629 10632 10633 10634 10635 10636 10638 10640 10641 10642 10643 10645 10647 10648 10650 10653 10656 10659 10662 10662 10660 10660 10660 10661 10662 10661 10661 10662 10662 10661 10659 10659 10663 10665 10665 10665 10666 10665 10664 10663 10663 10662 10661 10661 10660 10658 10657 10656 10655 10653 10652 10651 10650 10648 10647 10646 10645 10644 10643 10642 10641 10639
10618 10617 10615 10612 10609 10607 10606 10604 10602 10601 10599 10597 10597 10598 10601 10604 10607 10611 10614 10615 10617 10618 10619 10621 10623 10624 10626 10628 10629 10631 10633 10634 10635 10636 10637 10639 10642 10645 10647 10650 10654 10657 10656 10656 10656 10655 10655 10656 10655 10655 10656 10655 10654 10653 10653 10656 10658 10658 10658 10660 10660 10659 10658 10658 10657 10656 10656 10655 10654 10652 10651 10650 10649 10647 10646 10645 10644 10643 10641 10640 10639 10638 10637 10636 10634
10611 10610 10609 10607 10604 10601 10600 10598 10597 10596 10593 10591 10590 10591 10594 10597 10600 10603 10606 10608 10610 10612 10612 10614 10615 10616 10618 10620 10623 10624 10625 10626 10628 10629 10630 10631 10635 10639 10641 10644 10648 10650 10650 10650 10651 10649 10649 10649 10648 10648 10649 10648 10647 10646 10648 10651 10651 10650 10652 10654 10654 10653 10653 10652 10651 10650 10650 10650 10649 10647 10646 10645 10644 10642 10641 10640 10639 10638 10637 10635 10634 10633 10632 10631 10629
10604 10604 10602 10601 10599 10596 10594 10593 10592 10591 10588 10585 10584 10585 10587 10590 10592 10594 10597 10601 10603 10605 10606 10607 10608 10609 10610 10612 10616 10617 10618 10619 10621 10622 10623 10625 10628 10631 10635 10639 10642 10643 10642 10643 10643 10642 10642 10643 10642 10642 10642 10642 10641 10638 10640 10644 10644 10643 10645 10647 10647 10647 10646 10646 10645 10644 10645 10644 10643 10642 10641 10640 10639 10637 10636 10635 10634 10632 10631 10630 10628 10628 10626 10625 10623
10597 10597 10596 10594 10593 10591 10589 10587 10586 10586 10584 10580 10579 10580 10581 10583 10585 10587 10590 10593 10595 10597 10599 10600 10601 10602 10604 10606 10609 10610 10611 10612 10613 10615 10616 10618 10621 10624 10627 10632 10634 10634 10635 10635 10635 10634 10634 10635 10636 10636 10636 10637 10636 10634 10634 10635 10635 10635 10636 10637 10639 10640 10639 10639 10639 10638 10638 10638 10638 10636 10635 10634 10633 10632 10631 10629 10628 10627 10625 10624 10623 10622 10621 10619 10618
10590 10590 10589 10588 10586 10585 10583 10582 10580 10580 10579 10576 10574 10574 10575 10576 10578 10580 10582 10585 10587 10590 10592 10594 10595 10596 10597 10600 10603 10603 10604 10605 10606 10608 10609 10612 10615 10617 10620 10624 10627 10627 10628 10628 10628 10628 10628 10628 10628 10629 10630 10631 10631 10632 10631 10629 10626 10626 10628 10629 10631 10632 10632 10631 10632 10632 10632 10632 10632 10630 10629 10628 10627 10626 10625 10624 10622 10621 10619 10619 10618 10617 10615 10614 10612
10583 10582 10581 10580 10579 10578 10577 10576 10574 10574 10573 10571 10569 10568 10569 10570 10571 10573 10575 10577 10579 10582 10585 10587 10588 10589 10591 10594 10596 10595 10596 10597 10600 10602 10604 10606 10609 10610 10612 10616 10619 10620 10620 10621 10620 10621 10622 10622 10622 10622 10623 10624 10626 10627 10628 10626 10621 10618 10620 10622 10622 10625 10626 10624 10624 10624 10625 10626 10625 10624 10623 10622 10621 10620 10618 10617 10615 10614 10613 10613 10612 10611 10610 10608 10606
10576 10575 10574 10573 10572 10571 10570 10569 10568 10567 10566 10566 10565 10563 10563 10563 10564 10565 10567 10570 10572 10574 10576 10579 10581 10583 10585 10587 10588 10587 10588 10591 10593 10595 10597 10600 10602 10603 10604 10607 10610 10612 10613 10613 10614 10614 10615 10616 10617 10617 10616 10618 10620 10621 10622 10622 10619 10614 10613 10614 10615 10618 10618 10617 10616 10616 10617 10618 10618 10618 10617 10615 10614 10613 10611 10610 10609 10608 10608 10607 10606 10605 10604 10602 10600
10568 10567 10566 10565 10564 10564 10563 10562 10561 10560 10560 10559 10559 10558 10557 10557 10557 10558 10559 10562 10565 10566 10569 10571 10573 10576 10578 10580 10581 10580 10582 10585 10585 10586 10589 10592 10594 10596 10597 10599 10602 10604 10605 10606 10607 10607 10607 10609 10610 10610 10610 10611 10614 10615 10616 10616 10616 10613 10609 10606 10608 10611 10611 10609 10608 10608 10609 10610 10610 10610 10610 10609 10608 10606 10604 10602 10602 10602 10601 10601 10600 10599 10598 10597 10594
10559 10559 10558 10557 10556 10556 10555 10554 10554 10553 10553 10552 10552 10552 10551 10550 10550 10550 10551 10553 10556 10559 10561 10563 10565 10568 10571 10573 10574 10573 10576 10579 10578 10578 10581 10585 10588 10589 10590 10591 10595 10597 10598 10599 10599 10600 10600 10602 10602 10603 10604 10604 10606 10609 10610 10609 10609 10609 10606 10602 10601 10604 10605 10603 10601 10600 10602 10602 10601 10602 10604 10603 10601 10598 10596 10595 10595 10595 10595 10594 10594 10593 10592 10590 10588
10551 10551 10550 10549 10548 10547 10547 10546 10546 10545 10545 10545 10544 10545 10545 10544 10543 10542 10542 10544 10547 10550 10553 10555 10557 10559 10562 10566 10567 10567 10568 10572 10572 10572 10574 10578 10581 10583 10583 10584 10587 10589 10590 10591 10591 10592 10593 10594 10595 10596 10597 10598 10599 10602 10603 10603 10603 10603 10601 10598 10596 10597 10598 10597 10594 10594 10595 10593 10592 10594 10596 10595 10593 10590 10588 10587 10587 10587 10587 10587 10587 10586 10585 10583 10581
10541 10541 10541 10540 10539 10539 10538 10538 10537 10537 10537 10537 10536 10537 10536 10536 10535 10534 10534 10535 10538 10541 10544 10547 10549 10551 10553 10557 10559 10559 10562 10565 10566 10567 10570 10572 10575 10577 10577 10578 10579 10581 10583 10583 10583 10585 10585 10586 10588 10589 10590 10591 10593 10595 10596 10596 10596 10597 10594 10590 10590 10592 10593 10591 10589 10588 10587 10584 10583 10585 10587 10587 10586 10584 10581 10579 10578 10579 10579 10579 10579 10579 10578 10576 10574
10531 10531 10530 10530 10529 10529 10529 10529 10528 10528 10527 10527 10528 10528 10528 10528 10527 10526 10526 10527 10529 10531 10534 10537 10540 10542 10545 10549 10551 10552 10555 10557 10559 10562 10565 10567 10569 10571 10571 10572 10572 10573 10575 10575 10576 10577 10578 10579 10580 10582 10583 10584 10586 10590 10589 10588 10590 10591 10586 10582 10584 10587 10587 10585 10583 10582 10580 10577 10575 10576 10577 10578 10578 10578 10575 10571 10569 10571 10572 10571 10572 10572 10570 10568 10566
10520 10520 10520 10519 10519 10519 10518 10518 10518 10518 10517 10518 10518 10519 10520 10519 10519 10518 10518 10518 10519 10522 10524 10526 10530 10533 10536 10540 10542 10545 10548 10549 10552 10556 10559 10559 10561 10564 10564 10565 10566 10566 10566 10567 10568 10570 10571 10571 10572 10575 10576 10577 10580 10582 10582 10581 10584 10584 10579 10577 10579 10580 10578 10577 10576 10575 10573 10571 10569 10569 10569 10570 10570 10570 10567 10564 10561 10562 10563 10564 10564 10564 10563 10560 10558
10508 10509 10508 10508 10508 10508 10507 10507 10508 10507 10507 10507 10508 10509 10510 10510 10510 10509 10510 10510 10510 10512 10514 10516 10519 10523 10527 10531 10534 10537 10540 10542 10545 10549 10551 10551 10552 10555 10556 10557 10559 10559 10559 10559 10560 10561 10563 10563 10564 10566 10569 10571 10574 10574 10573 10574 10577 10576 10573 10571 10571 10570 10569 10569 10567 10566 10565 10564 10562 10562 10562 10562 10563 10562 10559 10557 10554 10552 10553 10555 10556 10556 10555 10553 10551
10496 10496 10496 10495 10495 10495 10496 10496 10496 10496 10496 10497 10497 10498 10500 10501 10501 10500 10501 10501 10502 10502 10504 10506 10509 10512 10516 10521 10525 10529 10531 10534 10537 10540 10542 10542 10544 10546 10547 10548 10550 10551 10551 10551 10552 10553 10554 10555 10556 10558 10561 10564 10567 10566 10565 10566 10568 10569 10566 10563 10561 10561 10560 10559 10557 10556 10557 10556 10555 10556 10556 10555 10555 10554 10552 10550 10547 10543 10543 10545 10546 10546 10545 10544 10542